Temperature
2 2 3 3 3 3 3 5 5 6 6 6 5 4 3 2 2 2 2 2 2 3 4 4 4 5 5 6 6 6 6 6 6 6 6 6 6 5 5 5 5 5 4 4
1 2 2 2 3 3 3 3 4 4 4 4 3 3 2 2 2 2 1 1 2 3 3 4 4 5 5 5 5 5 5 5 5 5 5 5 5 5 5 5 4 4 4 4
2 2 2 2 2 2 2 3 3 4 4 3 2 2 2 1 1 1 1 1 2 2 3 4 4 4 4 4 5 5 5 5 5 5 4 4 4 4 4 4 4 4 3 3
1 2 2 2 1 1 1 1 2 2 2 2 2 1 0 0 1 1 1 1 2 3 3 3 3 4 4 4 4 4 4 4 4 4 4 4 4 4 4 3 3 3 3 3
1 2 2 2 1 0 0 1 0 1 1 1 0 1 1 -0 0 0 0 1 2 2 2 3 3 3 3 3 3 3 3 3 3 3 3 3 3 3 3 3 3 3 2 2
0 1 1 1 0 -1 0 1 0 -1 -0 -0 -0 2 2 -0 -0 -0 0 1 1 2 2 2 2 2 3 3 3 3 3 3 3 3 3 3 3 3 2 2 2 2 2 2
-0 1 1 -0 -1 -0 1 1 -1 -2 -1 -1 -0 0 -1 -1 -1 -1 -0 0 1 1 1 1 2 2 2 2 2 2 2 2 2 2 2 2 2 2 2 2 2 2 2 2
-1 0 0 -1 -1 -1 -1 -2 -2 -2 -2 -2 -2 -2 -2 -2 -2 -2 -1 -1 -0 0 0 1 1 1 2 2 2 2 2 2 2 2 2 2 2 2 2 1 1 1 1 1
-1 -0 -1 -3 -3 -3 -3 -3 -3 -3 -3 -3 -3 -3 -3 -3 -3 -2 -2 -1 -1 -0 -0 -0 0 0 1 1 1 1 1 1 1 1 1 1 1 1 1 1 1 1 1 0
-3 -2 -2 -3 -4 -4 -4 -4 -4 -4 -3 -3 -3 -4 -3 -3 -3 -3 -2 -2 -2 -1 -1 -1 -0 -0 0 0 0 0 0 0 0 0 0 0 0 0 0 0 0 -0 -0 -0
-3 -2 -3 -3 -4 -4 -4 -4 -4 -4 -4 -4 -4 -4 -4 -4 -3 -3 -3 -3 -2 -2 -1 -1 -1 -1 -1 -1 -0 -0 -0 -0 -0 -0 -0 -0 -0 -0 -0 -0 -1 -1 -1 -1
-2 -3 -4 -4 -5 -5 -5 -5 -4 -4 -4 -4 -4 -4 -4 -4 -4 -4 -3 -3 -3 -2 -2 -2 -1 -1 -1 -1 -1 -1 -1 -1 -1 -1 -1 -1 -1 -1 -1 -1 -1 -2 -2 -2
-5 -5 -6 -5 -5 -5 -5 -5 -5 -4 -4 -4 -4 -4 -4 -4 -4 -4 -3 -3 -3 -3 -2 -2 -2 -2 -2 -2 -1 -1 -1 -1 -1 -1 -1 -1 -2 -2 -2 -2 -2 -2 -2 -2
-6 -6 -6 -6 -6 -5 -5 -5 -5 -5 -5 -5 -5 -5 -5 -5 -4 -4 -4 -4 -3 -3 -3 -3 -3 -2 -2 -2 -2 -2 -2 -2 -2 -2 -2 -2 -2 -2 -2 -3 -3 -3 -3 -3
-6 -6 -6 -6 -6 -5 -5 -5 -5 -5 -5 -5 -5 -5 -5 -5 -5 -5 -4 -4 -4 -4 -3 -3 -3 -3 -3 -3 -3 -3 -2 -2 -2 -2 -2 -2 -3 -3 -3 -3 -3 -3 -3 -3
-6 -6 -6 -6 -6 -6 -6 -6 -6 -6 -6 -6 -6 -6 -5 -5 -5 -5 -5 -5 -4 -4 -4 -4 -4 -3 -3 -3 -3 -3 -3 -3 -3 -3 -3 -3 -3 -3 -4 -4 -4 -4 -4 -4
-7 -7 -7 -7 -6 -6 -6 -6 -6 -6 -6 -6 -6 -6 -6 -5 -5 -5 -5 -5 -5 -5 -5 -4 -4 -4 -4 -4 -4 -4 -4 -4 -4 -4 -4 -4 -4 -4 -4 -4 -4 -4 -4 -4
-6 -6 -6 -6 -6 -6 -6 -6 -6 -6 -6 -6 -6 -6 -6 -6 -6 -6 -6 -6 -5 -5 -5 -5 -5 -5 -5 -4 -4 -4 -4 -4 -4 -4 -4 -4 -4 -4 -4 -5 -5 -5 -5 -5
-6 -6 -6 -6 -6 -6 -7 -7 -7 -7 -7 -7 -6 -6 -6 -6 -6 -6 -6 -6 -6 -6 -6 -6 -5 -5 -5 -5 -5 -5 -5 -5 -5 -5 -5 -5 -5 -5 -5 -5 -5 -5 -5 -5
-6 -6 -6 -7 -7 -7 -7 -7 -7 -7 -7 -7 -7 -7 -7 -7 -7 -7 -7 -6 -6 -6 -6 -6 -6 -6 -5 -5 -5 -5 -5 -5 -5 -5 -5 -5 -5 -6 -6 -6 -6 -6 -6 -6
-7 -7 -7 -7 -7 -7 -7 -7 -7 -7 -7 -7 -7 -7 -7 -7 -7 -7 -7 -7 -7 -7 -7 -6 -6 -6 -6 -6 -6 -6 -6 -6 -6 -6 -6 -6 -6 -6 -6 -6 -6 -6 -6 -6
-7 -7 -7 -7 -8 -8 -8 -8 -8 -8 -8 -8 -8 -8 -8 -8 -8 -8 -7 -7 -7 -7 -7 -7 -7 -7 -7 -7 -7 -7 -6 -6 -6 -6 -6 -6 -6 -6 -6 -6 -6 -6 -6 -6
-7 -8 -8 -8 -8 -8 -8 -8 -8 -8 -8 -8 -8 -8 -8 -8 -8 -8 -8 -8 -8 -8 -8 -7 -7 -7 -7 -7 -7 -7 -7 -7 -7 -7 -7 -7 -7 -7 -7 -7 -7 -7 -7 -6
-8 -8 -8 -8 -8 -8 -8 -8 -8 -8 -9 -9 -9 -9 -9 -8 -8 -8 -8 -8 -8 -8 -8 -8 -8 -7 -7 -7 -7 -7 -7 -7 -7 -7 -7 -7 -7 -7 -7 -7 -7 -7 -7 -7
-8 -8 -8 -9 -8 -8 -9 -9 -9 -9 -9 -9 -9 -9 -9 -9 -9 -8 -8 -8 -8 -8 -8 -8 -8 -8 -8 -8 -8 -7 -8 -8 -8 -8 -8 -8 -8 -8 -8 -8 -7 -7 -7 -7
-9 -9 -9 -9 -9 -9 -9 -9 -9 -9 -9 -9 -9 -9 -9 -9 -9 -9 -9 -9 -9 -8 -8 -8 -8 -8 -8 -8 -8 -8 -8 -8 -8 -8 -8 -8 -8 -8 -8 -8 -8 -7 -7 -7
-9 -9 -9 -9 -9 -9 -9 -9 -9 -9 -9 -9 -9 -9 -9 -9 -9 -9 -9 -9 -9 -9 -9 -8 -8 -8 -8 -8 -8 -8 -8 -8 -8 -8 -8 -8 -8 -8 -8 -8 -8 -7 -7 -7
Wind_Speed
4 5 4 4 5 6 6 7 7 8 7 5 4 3 3 3 2 2 3 3 3 3 2 1 1 3 4 6 7 7 8 7 7 6 6 6 5 5 5 4 4 4 3 2
3 4 4 4 4 5 6 6 7 6 7 3 3 2 2 2 2 2 2 3 3 3 3 2 1 2 4 5 6 7 7 7 6 6 6 6 5 5 5 4 4 3 3 2
2 4 3 3 2 3 4 4 5 8 6 2 3 3 3 2 2 2 2 3 3 2 2 2 1 2 4 5 6 7 7 6 6 6 6 5 5 5 5 4 4 3 2 2
2 2 3 1 3 2 2 2 3 5 5 4 4 4 3 2 1 2 3 3 3 3 2 2 1 2 4 5 6 6 6 6 6 6 6 5 5 5 4 4 3 2 2 1
1 3 4 1 3 4 2 3 4 5 5 4 3 3 2 2 2 3 3 3 2 2 1 1 1 2 4 5 6 6 6 5 5 6 6 6 5 4 4 3 3 2 2 1
2 3 3 2 5 7 4 3 5 6 6 5 3 2 3 3 5 4 3 2 2 2 2 2 2 3 5 5 5 5 4 4 5 5 6 5 5 4 3 3 3 2 1 1
3 3 3 4 6 4 2 3 7 7 6 5 4 4 3 3 4 3 3 3 3 3 3 3 3 4 5 5 4 4 4 4 4 4 5 5 4 4 3 3 3 2 2 1
2 3 2 5 4 2 5 7 6 6 6 6 4 3 2 2 3 3 3 3 3 3 4 3 3 4 5 4 3 4 4 5 4 4 4 4 5 4 3 3 3 2 2 1
3 3 4 4 4 6 6 6 6 6 6 4 2 2 2 2 2 2 3 3 3 4 4 4 3 3 5 4 3 4 5 5 5 5 4 4 4 4 3 3 2 2 1 1
4 5 6 6 6 5 6 6 6 5 4 3 2 2 2 2 2 2 3 3 3 4 4 4 4 4 4 4 4 5 5 5 5 5 4 4 3 3 3 2 2 1 1 0
4 6 6 4 5 7 6 5 5 4 3 2 1 2 2 2 2 2 2 3 3 3 3 4 4 4 4 3 4 5 5 5 5 4 4 4 3 2 2 1 1 1 0 0
4 3 4 6 7 6 5 5 5 4 4 4 2 2 2 2 2 2 2 3 3 4 4 4 4 4 3 3 3 5 5 4 3 3 3 3 3 3 3 2 2 2 2 1
5 5 6 7 6 5 4 5 5 4 3 3 4 3 3 3 3 3 3 3 3 3 4 4 4 4 4 3 3 4 4 3 3 3 3 3 2 2 2 3 3 3 3 3
5 4 4 3 3 4 3 4 4 4 4 4 3 3 3 4 4 4 4 4 4 4 4 4 4 4 4 3 3 4 3 3 3 2 2 2 2 2 1 1 1 1 2 3
3 3 3 3 2 3 3 2 3 4 4 5 4 4 4 4 4 4 4 4 4 4 4 4 4 4 4 3 3 3 3 2 2 2 2 2 1 1 1 1 0 1 1 2
3 2 1 1 2 2 2 2 2 3 3 3 3 4 4 4 4 4 4 4 4 4 4 4 4 3 3 3 3 2 2 3 2 2 2 1 1 1 1 0 0 1 1 2
2 2 1 2 2 2 2 2 1 2 2 2 2 3 3 4 4 4 5 4 4 4 3 3 3 3 3 2 2 2 2 2 2 1 1 1 1 0 0 0 1 1 1 2
3 2 2 3 2 2 2 1 1 1 1 2 2 2 3 3 3 3 3 4 4 4 4 3 3 3 3 2 2 1 1 1 1 1 1 1 0 0 0 1 1 1 2 2
1 1 1 2 2 1 1 1 1 1 1 1 2 2 2 2 2 3 3 3 3 3 3 3 3 3 3 2 2 1 1 1 1 1 1 1 0 0 0 1 1 2 2 2
0 0 0 1 1 0 0 1 1 1 1 1 2 2 2 2 2 2 3 3 2 2 2 2 3 2 2 2 2 1 1 1 1 1 0 0 0 1 1 1 2 2 2 3
1 0 0 1 1 1 1 1 1 1 1 1 2 2 2 2 2 2 2 2 3 3 2 3 2 2 2 2 1 1 1 0 0 0 0 1 1 1 2 2 2 2 3 3
1 1 0 0 1 1 1 1 1 1 1 1 1 1 1 2 2 2 2 1 2 3 2 2 2 2 2 2 1 1 0 0 0 0 1 1 1 2 2 2 3 3 3 3
2 1 1 0 0 0 1 1 1 1 1 1 1 0 0 1 1 1 1 2 2 3 2 2 2 2 2 2 1 1 1 0 1 1 1 1 2 2 2 3 3 3 4 4
2 1 1 1 1 1 1 1 1 1 1 1 0 0 1 1 1 1 1 2 3 3 2 2 3 3 3 1 1 1 1 1 1 1 1 2 2 2 3 3 3 3 4 5
2 2 2 2 1 1 1 1 1 1 1 1 1 1 1 1 1 1 1 2 2 2 2 2 3 3 2 1 1 1 1 1 1 2 2 2 2 3 3 3 3 4 4 4
2 2 1 1 1 1 1 1 1 0 0 0 1 1 1 1 1 1 1 1 2 2 2 2 2 2 2 1 1 2 2 2 3 3 3 3 3 3 4 4 5 4 4 5
2 2 1 1 1 1 1 1 1 1 1 1 1 1 1 1 1 1 1 1 1 1 1 2 2 2 2 2 2 2 2 2 2 3 3 3 3 3 4 4 4 4 4 5
Wind_Direction
290 289 269 261 258 242 231 234 239 246 254 276 321 327 341 352 0 14 19 14 19 24 28 53 115 145 154 156 154 155 155 155 157 157 154 152 150 149 149 152 154 155 155 152
295 302 302 289 275 250 245 245 250 263 272 316 328 346 346 344 352 353 360 357 359 7 15 23 80 138 149 154 154 155 154 153 150 148 148 148 146 144 143 142 141 144 147 149
282 321 294 260 278 252 249 242 238 246 270 321 320 313 308 302 304 317 334 332 331 336 348 356 12 147 154 155 151 150 149 148 147 148 149 148 144 142 143 143 140 140 143 151
286 303 239 37 23 322 276 287 274 286 299 281 291 299 308 315 302 327 332 325 320 322 336 349 22 130 139 140 144 145 146 148 149 150 149 147 145 144 146 148 147 147 150 160
240 257 278 311 1 350 307 292 336 305 306 324 337 318 315 351 333 328 324 322 325 326 334 13 69 134 135 135 137 139 143 149 154 154 150 150 150 150 150 151 149 151 155 151
238 249 261 341 345 329 292 274 7 337 314 319 320 271 294 350 347 342 345 356 12 31 46 61 79 117 128 133 136 141 147 148 152 154 153 153 153 151 150 148 150 150 147 152
247 251 268 348 333 320 250 316 333 322 311 301 287 296 315 331 345 357 7 16 34 51 54 58 80 108 118 122 131 139 137 135 138 146 148 146 144 144 144 141 139 135 130 115
249 239 264 3 346 321 318 322 315 317 310 306 312 329 334 351 3 14 23 30 43 60 55 52 73 104 110 109 114 125 127 126 127 129 132 136 134 135 137 138 136 129 116 80
253 269 321 320 315 317 319 315 319 319 313 308 313 330 346 354 2 16 26 39 52 68 65 54 60 90 105 99 107 118 119 118 118 116 116 123 129 132 131 134 138 134 123 75
268 278 303 310 317 324 326 320 321 320 319 317 319 337 350 357 8 22 35 46 56 70 67 55 55 70 87 99 107 113 113 112 113 113 109 106 110 120 128 135 140 139 125 48
261 289 307 310 329 331 330 332 338 344 345 340 0 3 360 5 11 31 40 42 54 66 68 59 57 63 78 95 109 113 112 110 108 107 108 103 97 97 109 109 135 157 171 286
269 301 297 306 325 329 327 335 344 356 5 7 9 8 16 23 30 40 46 49 56 59 64 61 60 59 62 85 107 114 113 112 110 108 105 105 102 89 74 79 60 45 22 0
269 292 290 296 314 327 333 341 349 358 4 8 14 24 37 41 39 45 48 52 56 56 59 62 64 60 54 66 97 110 114 112 109 110 112 111 110 110 90 71 70 59 49 31
265 275 281 297 314 332 342 354 7 18 24 26 30 42 54 55 52 49 46 47 50 55 59 60 63 58 50 61 84 98 105 107 113 117 117 119 121 120 119 111 43 26 27 25
275 271 272 289 313 338 355 13 32 31 30 35 43 51 53 54 50 45 44 48 57 62 59 59 60 50 44 58 78 93 103 111 112 114 116 120 127 126 121 114 63 354 350 3
282 276 256 268 303 336 355 11 23 15 20 29 42 46 47 52 52 48 45 47 57 58 53 56 54 42 42 62 80 90 97 101 111 123 122 124 129 125 116 98 5 337 337 345
225 245 257 274 296 317 325 327 336 351 7 22 33 44 55 60 57 49 42 40 46 48 48 52 46 41 50 67 83 94 100 102 98 109 116 123 134 146 176 245 282 303 312 326
233 247 247 249 263 282 313 333 350 1 357 9 34 52 58 59 54 46 40 45 53 48 39 38 41 51 60 65 70 84 102 110 111 111 106 103 101 176 233 260 283 299 310 318
223 237 260 270 270 265 284 316 353 10 19 48 68 63 56 50 46 43 43 50 50 40 24 29 40 47 51 49 50 85 108 111 107 107 113 109 39 324 294 293 300 304 309 313
243 294 355 354 2 346 322 352 33 47 42 66 80 73 59 43 36 41 48 43 22 12 15 25 30 34 40 41 37 69 96 111 120 119 126 177 308 302 295 294 296 300 302 304
246 262 347 16 20 22 20 25 59 57 46 62 82 75 54 35 30 35 46 35 11 14 20 23 25 29 36 37 33 61 84 101 117 153 259 281 292 292 293 295 296 298 299 299
239 230 246 353 35 22 20 37 61 70 67 64 63 65 61 38 29 35 25 356 353 5 12 15 21 40 41 27 29 45 57 64 331 286 275 275 280 283 289 295 295 296 295 294
226 220 221 214 173 56 38 42 56 82 92 87 73 61 28 350 347 2 359 351 351 3 10 17 27 26 16 20 24 20 8 342 316 298 290 288 283 281 287 293 293 292 292 293
201 202 198 150 123 112 77 31 48 64 83 68 27 336 313 330 347 338 318 331 350 356 10 14 11 9 12 10 0 347 340 328 313 300 294 290 288 289 291 292 291 292 292 293
185 173 160 154 161 179 178 119 86 76 71 54 17 351 321 298 282 306 323 332 340 350 357 356 357 1 0 350 340 327 312 300 295 292 287 286 287 290 292 291 290 290 291 292
178 183 192 200 205 196 176 165 161 163 157 71 358 350 345 335 311 307 318 334 336 343 346 342 345 347 338 327 316 309 301 300 300 297 289 286 286 286 286 288 291 289 291 292
170 173 172 186 189 184 176 179 191 206 212 214 263 303 318 324 323 331 332 330 333 337 334 331 329 324 320 312 304 299 294 290 287 284 284 283 283 283 284 286 288 288 291 293
Height
1464 1462 1461 1460 1460 1459 1457 1452 1449 1445 1447 1448 1452 1453 1453 1452 1451 1450 1449 1448 1448 1448 1448 1449 1450 1452 1454 1456 1459 1462 1465 1468 1471 1474 1477 1479 1482 1484 1485 1487 1488 1489 1490 1491
1464 1461 1460 1460 1459 1458 1457 1455 1453 1452 1452 1453 1455 1455 1454 1452 1451 1450 1449 1449 1448 1448 1448 1449 1450 1451 1453 1455 1458 1461 1463 1466 1469 1472 1475 1477 1479 1481 1483 1484 1486 1487 1487 1488
1461 1461 1458 1457 1460 1459 1458 1456 1455 1452 1452 1455 1454 1454 1453 1452 1451 1451 1450 1449 1448 1448 1448 1448 1449 1450 1452 1455 1457 1460 1462 1465 1468 1470 1473 1475 1477 1479 1481 1482 1483 1484 1485 1486
1464 1462 1460 1461 1462 1462 1460 1458 1458 1456 1455 1455 1455 1454 1453 1452 1451 1450 1450 1448 1447 1447 1447 1448 1449 1450 1452 1454 1456 1458 1461 1463 1466 1469 1471 1473 1475 1477 1479 1480 1481 1482 1483 1484
1465 1460 1456 1460 1463 1463 1462 1458 1459 1458 1456 1456 1455 1453 1451 1451 1451 1450 1449 1448 1447 1447 1447 1447 1448 1449 1451 1453 1455 1457 1460 1462 1465 1467 1469 1471 1474 1475 1477 1479 1480 1481 1481 1482
1467 1462 1458 1461 1465 1463 1462 1455 1459 1458 1456 1455 1454 1450 1450 1451 1450 1449 1448 1447 1447 1446 1446 1447 1447 1449 1450 1452 1454 1456 1459 1461 1464 1466 1468 1470 1472 1474 1476 1477 1478 1479 1480 1480
1467 1463 1459 1466 1466 1463 1460 1458 1460 1458 1457 1455 1454 1452 1452 1450 1449 1448 1447 1447 1447 1446 1446 1447 1447 1449 1450 1452 1454 1456 1458 1461 1463 1465 1467 1469 1471 1473 1474 1475 1476 1477 1478 1478
1469 1464 1465 1467 1466 1465 1464 1462 1460 1458 1457 1455 1453 1452 1450 1449 1448 1448 1447 1447 1447 1446 1446 1447 1448 1449 1450 1451 1454 1456 1458 1460 1462 1464 1466 1468 1470 1471 1473 1474 1475 1475 1475 1476
1472 1470 1469 1468 1467 1466 1464 1462 1460 1458 1456 1454 1452 1451 1450 1449 1448 1447 1447 1447 1447 1447 1447 1448 1449 1450 1451 1452 1454 1456 1458 1459 1461 1463 1465 1467 1469 1470 1471 1472 1473 1473 1473 1473
1474 1469 1469 1468 1466 1464 1463 1461 1459 1457 1455 1453 1451 1450 1449 1449 1448 1447 1447 1447 1447 1447 1447 1448 1449 1450 1452 1453 1455 1456 1458 1459 1461 1463 1465 1466 1468 1469 1470 1470 1470 1471 1471 1471
1472 1470 1468 1466 1465 1463 1461 1459 1458 1456 1454 1453 1451 1450 1450 1449 1448 1448 1447 1447 1448 1448 1448 1449 1450 1451 1452 1454 1455 1456 1458 1460 1461 1463 1464 1465 1467 1468 1468 1469 1469 1469 1469 1469
1469 1470 1470 1467 1465 1463 1461 1459 1457 1455 1453 1453 1452 1450 1450 1449 1449 1448 1448 1448 1448 1448 1449 1449 1450 1452 1453 1454 1456 1457 1458 1460 1461 1463 1464 1465 1466 1466 1467 1468 1468 1467 1467 1467
1471 1469 1468 1465 1464 1462 1460 1459 1457 1455 1454 1453 1452 1451 1450 1450 1449 1449 1448 1448 1448 1449 1449 1450 1451 1452 1453 1455 1456 1457 1458 1460 1461 1462 1463 1464 1464 1465 1465 1466 1466 1466 1465 1465
1468 1467 1465 1464 1462 1461 1460 1458 1457 1455 1454 1453 1452 1452 1451 1450 1450 1449 1449 1449 1449 1449 1450 1450 1451 1452 1454 1455 1456 1457 1459 1460 1461 1462 1462 1463 1463 1464 1464 1463 1463 1463 1464 1463
1466 1465 1464 1462 1461 1460 1459 1458 1457 1456 1454 1453 1453 1452 1451 1451 1450 1450 1450 1450 1449 1450 1450 1451 1452 1453 1454 1455 1456 1457 1458 1459 1460 1461 1462 1462 1462 1462 1462 1462 1462 1462 1461 1461
1464 1463 1462 1461 1460 1459 1459 1458 1457 1456 1455 1454 1453 1452 1452 1451 1451 1450 1450 1450 1450 1450 1451 1451 1452 1453 1454 1455 1456 1457 1458 1459 1459 1460 1460 1461 1461 1461 1461 1461 1461 1460 1460 1459
1462 1461 1461 1460 1459 1458 1458 1457 1456 1455 1455 1454 1453 1453 1452 1452 1451 1451 1451 1451 1451 1451 1451 1452 1453 1453 1454 1455 1456 1456 1457 1458 1458 1459 1459 1459 1459 1459 1459 1459 1459 1459 1458 1457
1461 1460 1460 1459 1458 1458 1457 1456 1456 1455 1454 1454 1453 1453 1453 1452 1452 1452 1452 1452 1451 1452 1452 1452 1453 1453 1454 1455 1455 1456 1456 1457 1457 1458 1458 1458 1458 1458 1458 1458 1457 1457 1456 1455
1459 1459 1458 1458 1457 1457 1456 1456 1455 1455 1454 1454 1453 1453 1453 1453 1452 1452 1452 1452 1452 1452 1452 1453 1453 1453 1454 1454 1455 1455 1455 1456 1456 1456 1456 1456 1456 1456 1456 1456 1455 1455 1454 1453
1458 1458 1457 1457 1456 1456 1455 1455 1454 1454 1454 1454 1453 1453 1453 1453 1453 1452 1452 1452 1452 1452 1452 1453 1453 1453 1453 1453 1454 1454 1454 1455 1455 1455 1455 1455 1455 1455 1454 1454 1453 1453 1452 1451
1457 1456 1456 1455 1455 1455 1454 1454 1453 1453 1453 1453 1453 1453 1453 1452 1453 1452 1452 1452 1452 1452 1452 1452 1452 1452 1452 1453 1453 1453 1453 1453 1453 1453 1453 1453 1453 1453 1452 1452 1451 1451 1450 1449
1455 1455 1455 1454 1454 1453 1453 1453 1453 1453 1453 1453 1452 1452 1452 1452 1452 1452 1452 1452 1452 1452 1452 1452 1452 1452 1452 1452 1452 1452 1452 1452 1452 1452 1452 1451 1451 1451 1450 1450 1449 1448 1447 1447
1454 1454 1453 1453 1453 1452 1452 1452 1452 1452 1452 1452 1452 1452 1452 1452 1452 1451 1451 1452 1451 1451 1451 1451 1451 1451 1451 1451 1451 1451 1451 1450 1450 1450 1450 1449 1449 1448 1448 1447 1447 1446 1445 1444
1452 1452 1452 1452 1452 1451 1451 1451 1451 1451 1451 1451 1451 1451 1451 1451 1451 1451 1451 1451 1451 1451 1450 1450 1450 1450 1450 1450 1450 1449 1449 1449 1449 1448 1448 1447 1447 1446 1446 1445 1444 1444 1443 1442
1450 1450 1450 1450 1450 1450 1450 1450 1450 1450 1450 1450 1450 1451 1451 1451 1451 1451 1450 1450 1450 1450 1450 1450 1449 1449 1449 1449 1448 1448 1448 1447 1447 1446 1445 1445 1444 1444 1443 1443 1442 1441 1440 1439
1448 1448 1448 1449 1449 1449 1449 1449 1449 1449 1449 1450 1450 1450 1450 1450 1450 1450 1450 1449 1449 1449 1449 1449 1448 1448 1448 1447 1447 1446 1446 1445 1445 1444 1444 1443 1442 1442 1441 1441 1440 1439 1438 1437
1446 1446 1447 1447 1447 1447 1448 1448 1448 1448 1449 1449 1449 1449 1449 1449 1449 1449 1449 1449 1448 1448 1448 1448 1447 1447 1446 1446 1445 1445 1444 1443 1443 1442 1441 1441 1440 1440 1439 1438 1437 1436 1436 1435